Powrót do katalogu

USA 40 R/B DEB

AktywnyHEO
NORAD 23372·DEBRIS·🇺🇸 United States

Wystrzelony Aug 8, 1989 z Cape Canaveral Space Force Station

Loading…

Następne Przeloty (najbliższe 24 godziny)

TLE

ŚwieżeSource: Space-Track

Epoka: Sep 5, 2026, 23:58 UTC

1 23372U 89061AU  26248.99923078  .00001142  00000-0  68796-3 0  9997
2 23372  57.0154 114.5987 2703692 238.0972  92.8544  9.49080189251060

Śledź USA 40 R/B DEB w czasie rzeczywistym z AllMySat

Download on the App Store